Location: Columbia
(38.9520°N, 92.3340°W)
Time: 03:39:21
(UTC-06:00)

Meteor 1-4 Rocket - Visible Passes

Search period start: 18 December 2014 00:00
Search period end: 28 December 2014 00:00
Orbit: 467 x 530 km, 81.2° (Epoch: 17 December)

Date Brightness Start Highest point End Pass type
(mag) Time Alt. Az. Time Alt. Az. Time Alt. Az.
18 Dec 4.5 05:21:34 10° NNE 05:25:02 31° ENE 05:28:31 10° SE visible
18 Dec 4.1 19:07:15 10° SSW 19:09:29 33° SW 19:09:29 33° SW visible
19 Dec 5.1 05:01:52 12° NNE 05:04:33 23° ENE 05:07:39 10° SE visible
19 Dec 4.0 06:36:55 10° NW 06:39:54 22° W 06:42:54 10° SW visible
19 Dec 2.6 18:46:41 10° SSW 18:50:14 74° W 18:50:14 74° W visible
20 Dec 5.5 04:42:26 14° NE 04:44:00 17° ENE 04:46:33 10° ESE visible
20 Dec 3.6 06:17:08 16° NW 06:19:32 30° W 06:22:57 10° SSW visible
20 Dec 2.4 18:26:13 10° S 18:29:47 74° E 18:30:56 41° NNE visible
21 Dec 5.8 04:23:03 12° ENE 04:23:25 12° ENE 04:25:02 10° E visible
21 Dec 3.1 05:57:45 30° NW 05:59:07 42° W 06:02:49 10° SSW visible
21 Dec 2.7 18:05:51 10° S 18:09:19 49° E 18:11:33 20° NNE visible
22 Dec 2.6 05:38:25 60° WNW 05:38:40 61° W 05:42:31 10° S visible
22 Dec 3.2 17:45:36 10° SSE 17:48:52 33° E 17:52:06 11° NNE visible
22 Dec 5.7 19:22:49 10° W 19:24:31 13° WNW 19:26:13 10° NW visible
23 Dec 3.2 05:19:07 51° S 05:19:07 51° S 05:22:05 10° S visible
23 Dec 3.8 17:25:29 10° SE 17:28:25 24° E 17:31:25 10° NE visible
23 Dec 5.3 19:01:21 10° WSW 19:03:52 18° WNW 19:06:26 10° NNW visible
24 Dec 4.6 04:59:50 24° SSE 04:59:50 24° SSE 05:01:31 10° SSE visible
24 Dec 4.8 18:40:12 10° SW 18:43:14 24° WNW 18:46:20 10° NNW visible
25 Dec 5.6 04:40:33 12° SSE 04:40:33 12° SSE 04:40:48 10° SSE visible
25 Dec 4.2 18:19:15 10° SW 18:22:36 34° WNW 18:26:02 10° N visible
26 Dec 3.5 17:58:25 10° SSW 18:01:58 50° WNW 18:05:38 10° N visible
27 Dec 2.8 17:37:43 10° SSW 17:41:21 76° W 17:45:06 10° N visible
